CMS-02 (GSAT 24)

Last updated on Sat Jul 05 2025 00:02:48 GMT+0000 (Coordinated Universal Time)

1 52903U 22067A 25185.57892241 -.00000151 00000+0 00000+0 0 9991 2 52903 0.0343 269.8760 0000907 41.5933 262.8299 1.00271393 11129
UTC large
Height (km)
Speed (km/s)
/
Latitude / Longitude
Inclination (degrees)
Orbital Period (minutes)
Azimuth
Elevation
Range (km)
Doppler Factor

Next 0 passes for location: London (51.5072 / 0.1276)

Sorry there are no passes over London.